Date String (YYYY-MM-DD hh:mm:ss) UTC,Instrument flags,absolute air pressure of the measurement (hPa),sample flow rate (lpm),inlet stack bypass flow (lpm),air temperature of the measurement (°C),ambient temperature measured by the external sensor (°C),aerosol sample conditioner tube jacket temperature (°C),OPC LED temperature (°C),internal box temperature (°C),relative humidity of the measurement (%),span deviation,mass concentration of particles derived from Lorenz-Mie calculation of OPC scattering (μg/m³),mass concentration of particles derived from Lorenz-Mie calculation of OPC scattering (μg/m³),mass concentration of particles derived from Lorenz-Mie calculation of OPC scattering (μg/m³)
DateTimeUTC,F1_M11,P_M11,Q1_M11,Q2_M11,T1_M11,T2_M11,T3_M11,T4_M11,T5_M11,U1_M11,ZSPAN_M11,X0_M11,X2_M11,X1_M11
2024-03-19 08:00:00,SystemResetWarning,0830.6,5.00,000.00,019.6,018.9,000.0,028.2,021.4,14.6,0000.0,0007.35,0002.03,0000.85
2024-03-19 08:01:00,SystemResetWarning,0830.7,4.99,000.00,019.6,018.9,000.0,028.2,021.4,14.4,0000.0,0007.16,0001.99,0000.85
2024-03-19 08:02:00,SystemResetWarning,0830.7,4.99,000.00,019.6,018.9,000.0,028.2,021.3,14.6,0000.0,0006.08,0001.96,0000.86
2024-03-19 08:03:00,SystemResetWarning,0830.7,5.00,000.00,019.6,018.9,000.0,028.1,021.3,14.7,0000.0,0005.72,0002.00,0000.87
2024-03-19 08:04:00,SystemResetWarning,0830.7,5.01,000.00,019.6,018.8,000.0,028.1,021.3,14.7,0000.0,0004.80,0001.96,0000.87
2024-03-19 08:05:00,SystemResetWarning,0830.6,5.01,000.00,019.6,018.8,000.0,028.1,021.3,14.8,0000.0,0004.87,0002.02,0000.87
2024-03-19 08:06:00,SystemResetWarning,0830.6,5.01,000.00,019.6,018.8,000.0,028.1,021.3,14.7,0000.0,0004.86,0002.00,0000.87
2024-03-19 08:07:00,SystemResetWarning,0830.7,5.00,000.00,019.6,018.8,000.0,028.1,021.3,14.7,0000.0,0004.80,0001.95,0000.87
2024-03-19 08:08:00,SystemResetWarning,0830.6,5.00,000.00,019.6,018.8,000.0,028.1,021.3,14.7,0000.0,0005.01,0002.00,0000.88
2024-03-19 08:09:00,SystemResetWarning,0830.7,5.00,000.00,019.5,018.8,000.0,028.1,021.3,15.0,0000.0,0005.50,0001.94,0000.87
2024-03-19 08:10:00,SystemResetWarning,0830.7,5.00,000.00,019.5,018.8,000.0,028.1,021.3,15.3,0000.0,0005.70,0001.87,0000.86
2024-03-19 08:11:00,SystemResetWarning,0830.7,5.00,000.00,019.5,018.8,000.0,028.1,021.3,14.9,0000.0,0005.92,0001.89,0000.86
2024-03-19 08:12:00,SystemResetWarning,0830.7,4.99,000.00,019.5,018.8,000.0,028.1,021.3,14.8,0000.0,0006.08,0001.94,0000.86
2024-03-19 08:13:00,SystemResetWarning,0830.7,5.00,000.00,019.5,018.8,000.0,028.1,021.3,14.7,0000.0,0006.41,0002.04,0000.86
2024-03-19 08:14:00,SystemResetWarning,0830.7,5.00,000.00,019.5,018.8,000.0,028.1,021.2,14.8,0000.0,0006.85,0002.02,0000.84
2024-03-19 08:15:00,SystemResetWarning,0830.7,5.00,000.00,019.5,018.8,000.0,028.1,021.2,14.7,0000.0,0007.02,0002.01,0000.82
2024-03-19 08:16:00,SystemResetWarning,0830.7,5.00,000.00,019.5,018.8,000.0,028.0,021.2,14.7,0000.0,0006.81,0001.98,0000.81
2024-03-19 08:17:00,SystemResetWarning,0830.7,5.00,000.00,019.5,018.8,000.0,028.0,021.2,14.8,0000.0,0006.72,0001.96,0000.81
2024-03-19 08:18:00,SystemResetWarning,0830.7,5.00,000.00,019.5,018.8,000.0,028.0,021.2,14.6,0000.0,0006.78,0001.99,0000.81
2024-03-19 08:19:00,SystemResetWarning,0830.6,5.00,000.00,019.5,018.8,000.0,028.0,021.2,14.6,0000.0,0006.77,0001.98,0000.81
2024-03-19 08:20:00,SystemResetWarning,0830.7,5.00,000.00,019.5,018.8,000.0,028.0,021.2,14.6,0000.0,0006.07,0002.02,0000.81
2024-03-19 08:21:00,SystemResetWarning,0830.7,5.00,000.00,019.5,018.8,000.0,028.0,021.2,14.8,0000.0,0005.72,0002.04,0000.81
2024-03-19 08:22:00,SystemResetWarning,0830.7,5.00,000.00,019.5,018.8,000.0,028.0,021.2,15.1,0000.0,0005.37,0002.00,0000.80
2024-03-19 08:23:00,SystemResetWarning,0830.6,5.00,000.00,019.5,018.7,000.0,028.0,021.2,15.0,0000.0,0005.32,0002.01,0000.80
2024-03-19 08:24:00,SystemResetWarning,0830.6,5.00,000.00,019.4,018.7,000.0,028.0,021.2,15.1,0000.0,0005.12,0001.93,0000.81
2024-03-19 08:25:00,SystemResetWarning,0830.6,5.00,000.00,019.4,018.7,000.0,028.0,021.2,15.1,0000.0,0004.94,0001.96,0000.83
2024-03-19 08:26:00,SystemResetWarning,0830.6,5.00,000.00,019.4,018.7,000.0,028.0,021.1,15.0,0000.0,0005.07,0001.99,0000.85
2024-03-19 08:27:00,SystemResetWarning,0830.6,5.00,000.00,019.4,018.7,000.0,028.0,021.1,15.0,0000.0,0005.01,0001.94,0000.86
2024-03-19 08:28:00,SystemResetWarning,0830.7,4.99,000.00,019.4,018.7,000.0,028.0,021.1,15.2,0000.0,0004.98,0001.96,0000.87
2024-03-19 08:29:00,SystemResetWarning,0830.6,5.00,000.00,019.4,018.7,000.0,027.9,021.1,15.0,0000.0,0004.92,0001.93,0000.86
2024-03-19 08:30:00,SystemResetWarning,0830.6,5.00,000.00,019.4,018.7,000.0,027.9,021.1,15.0,0000.0,0004.97,0001.93,0000.86
2024-03-19 08:31:00,SystemResetWarning,0830.6,5.00,000.00,019.4,018.7,000.0,027.9,021.1,15.1,0000.0,0004.78,0001.85,0000.85
2024-03-19 08:32:00,SystemResetWarning,0830.6,5.00,000.00,019.4,018.7,000.0,027.9,021.1,15.0,0000.0,0004.77,0001.86,0000.85
2024-03-19 08:33:00,SystemResetWarning,0830.6,5.00,000.00,019.4,018.7,000.0,027.9,021.1,15.1,0000.0,0004.65,0001.83,0000.86
2024-03-19 08:34:00,SystemResetWarning,0830.6,5.00,000.00,019.4,018.7,000.0,027.9,021.1,15.1,0000.0,0005.07,0001.87,0000.86
2024-03-19 08:35:00,SystemResetWarning,0830.6,5.00,000.00,019.4,018.7,000.0,027.9,021.1,15.2,0000.0,0006.02,0001.86,0000.85
2024-03-19 08:36:00,SystemResetWarning,0830.6,5.00,000.00,019.4,018.7,000.0,027.9,021.1,15.2,0000.0,0005.73,0001.82,0000.84
2024-03-19 08:37:00,SystemResetWarning,0830.6,5.01,000.00,019.4,018.7,000.0,027.9,021.1,15.4,0000.0,0005.44,0001.78,0000.82
2024-03-19 08:38:00,SystemResetWarning,0830.6,5.01,000.00,019.4,018.7,000.0,027.9,021.1,15.4,0000.0,0005.50,0001.81,0000.83
2024-03-19 08:39:00,SystemResetWarning,0830.6,5.00,000.00,019.4,018.7,000.0,027.9,021.1,15.2,0000.0,0005.61,0001.84,0000.82
2024-03-19 08:40:00,SystemResetWarning,0830.6,4.99,000.00,019.4,018.7,000.0,027.9,021.1,14.9,0000.0,0005.57,0001.88,0000.83
2024-03-19 08:41:00,SystemResetWarning,0830.6,4.99,000.00,019.4,018.6,000.0,027.9,021.1,15.2,0000.0,0005.48,0001.89,0000.83
2024-03-19 08:42:00,SystemResetWarning,0830.6,5.00,000.00,019.4,018.6,000.0,027.9,021.1,15.3,0000.0,0005.52,0001.90,0000.83
2024-03-19 08:43:00,SystemResetWarning,0830.5,5.00,000.00,019.3,018.6,000.0,027.9,021.1,15.2,0000.0,0005.68,0001.87,0000.84
2024-03-19 08:44:00,SystemResetWarning,0830.5,5.00,000.00,019.3,018.6,000.0,027.9,021.1,15.0,0000.0,0006.96,0001.88,0000.84
2024-03-19 08:45:00,SystemResetWarning,0830.6,5.00,000.00,019.3,018.6,000.0,027.9,021.1,14.9,0000.0,0007.25,0001.90,0000.85
2024-03-19 08:46:00,SystemResetWarning,0830.6,5.00,000.00,019.3,018.6,000.0,027.8,021.1,14.8,0000.0,0006.45,0001.95,0000.86
2024-03-19 08:47:00,SystemResetWarning,0830.5,5.00,000.00,019.3,018.6,000.0,027.8,021.1,14.7,0000.0,0006.27,0002.00,0000.87
2024-03-19 08:48:00,SystemResetWarning,0830.5,5.00,000.00,019.3,018.6,000.0,027.8,021.0,14.8,0000.0,0006.26,0002.02,0000.88
2024-03-19 08:49:00,SystemResetWarning,0830.6,5.00,000.00,019.3,018.6,000.0,027.8,021.0,14.8,0000.0,0006.35,0002.06,0000.88
2024-03-19 08:50:00,SystemResetWarning,0830.6,5.00,000.00,019.3,018.6,000.0,027.8,021.0,14.8,0000.0,0006.25,0001.98,0000.89
2024-03-19 08:51:00,SystemResetWarning,0830.5,5.02,000.00,019.3,018.6,000.0,027.8,021.0,15.7,0000.0,0006.24,0001.98,0000.89
2024-03-19 08:52:00,SystemResetWarning,0830.4,5.00,000.00,019.3,018.6,000.0,027.8,021.0,15.2,0000.0,0006.29,0001.97,0000.89
2024-03-19 08:53:00,SystemResetWarning,0830.5,5.00,000.00,019.3,018.5,000.0,027.8,021.0,15.2,0000.0,0006.28,0001.98,0000.90
2024-03-19 08:54:00,SystemResetWarning,0830.4,4.99,000.00,019.3,018.5,000.0,027.8,021.0,16.0,0000.0,0006.11,0002.01,0000.90
2024-03-19 08:55:00,SystemResetWarning,0830.5,5.00,000.00,019.2,018.5,000.0,027.8,021.0,15.0,0000.0,0005.16,0002.01,0000.90
2024-03-19 08:56:00,SystemResetWarning,0830.5,4.99,000.00,019.2,018.5,000.0,027.8,021.0,15.0,0000.0,0004.37,0001.95,0000.88
2024-03-19 08:57:00,SystemResetWarning,0830.5,5.00,000.00,019.2,018.5,000.0,027.8,021.0,15.0,0000.0,0004.69,0001.96,0000.88
2024-03-19 08:58:00,SystemResetWarning,0830.5,5.00,000.00,019.2,018.5,000.0,027.8,020.9,15.1,0000.0,0004.79,0001.95,0000.88
2024-03-19 08:59:00,SystemResetWarning,0830.4,5.00,000.00,019.2,018.5,000.0,027.8,020.9,15.1,0000.0,0004.83,0001.94,0000.88
